Retour au catalogue

STARLINK-5298

ActifCommunicationsVLEO
NORAD 55281·PAYLOAD·🇺🇸 United States

Lancé Jan 19, 2023 depuis Vandenberg Space Force Base

Loading…

Prochains Passages (prochaines 24 heures)

TLE

FraisSource: CelesTrak SupGP

Époque: Sep 15, 2026, 01:41 UTC

1 55281C 23010N   26258.07062500  .00021134  00000+0  17709-2 0  2584
2 55281  69.9990 286.9389 0003700 266.4817  99.8944 14.98323084    10

Suivez STARLINK-5298 en temps réel avec AllMySat

Download on the App Store